Lid_Strength_Index
17 19 20 20 19 19 19 20 21 20 17 18 19 19 17 15 16 17 17 17 16 15 13 12 11 11 10 9 10 10 8 7 7 6 5 5 4 3 2 1 -0 -0 -0 -0
20 20 19 17 17 18 19 20 22 19 18 18 19 19 17 17 17 17 17 16 16 15 13 12 12 11 11 9 8 8 8 8 7 7 6 4 4 3 3 3 3 2 1 -1
21 19 17 18 19 19 20 20 20 20 18 19 20 20 19 18 17 16 16 15 15 14 14 13 13 12 11 9 9 9 8 8 8 7 6 5 5 5 5 5 4 3 2 1
20 18 18 19 19 19 20 19 18 19 21 26 20 25 20 19 19 17 16 16 15 14 14 13 13 12 11 9 10 10 9 8 7 7 6 6 7 8 7 6 5 4 3 2
19 19 19 19 19 18 20 18 18 19 24 27 25 27 21 20 19 17 16 15 15 15 15 14 13 12 11 11 10 9 9 9 7 7 7 7 7 7 6 6 6 5 5 4
20 18 18 18 18 18 17 19 20 21 25 28 27 25 22 20 19 18 17 16 15 15 15 14 13 13 12 11 10 9 9 9 8 8 8 8 9 8 8 8 7 6 5 5
19 19 18 17 19 17 18 21 26 25 27 25 24 27 21 18 18 18 17 16 16 16 15 15 14 13 12 12 11 11 11 11 10 10 9 9 9 9 9 9 8 7 6 6
23 22 18 17 19 20 20 22 25 29 28 27 24 27 20 18 17 17 17 17 16 15 15 15 14 13 13 12 12 11 11 11 10 10 10 9 9 9 9 9 9 8 8 6
24 22 19 17 18 19 20 22 21 29 34 30 26 23 20 18 18 18 17 17 16 16 15 14 14 13 12 13 12 11 11 10 10 9 8 9 9 9 10 9 8 8 8 7
21 23 20 19 18 18 19 19 23 26 29 30 26 27 21 19 18 18 18 18 17 16 15 15 14 13 12 12 12 11 11 11 10 9 8 9 9 9 9 9 9 8 8 8
19 20 22 19 20 21 21 21 22 23 25 28 29 22 20 19 18 17 18 17 17 15 15 15 13 13 13 12 12 11 11 11 11 10 9 9 9 10 10 10 9 9 9 9
17 19 25 22 21 20 19 21 21 25 27 26 26 23 17 18 17 17 17 16 16 16 16 14 14 14 13 12 11 12 12 12 12 11 10 10 10 10 11 11 10 10 9 9
17 21 27 23 22 20 21 20 19 22 23 26 27 21 18 18 18 17 17 16 16 16 15 14 14 14 12 12 12 13 13 13 12 11 11 10 10 10 11 10 10 10 10 9
14 20 23 21 20 21 22 20 19 21 26 24 22 19 16 15 15 15 17 17 16 16 15 15 15 12 12 12 13 13 13 13 12 11 11 12 11 10 10 9 9 9 9 10
15 24 23 23 22 22 21 21 20 21 20 23 18 19 17 15 15 15 15 16 17 17 16 16 14 13 13 13 14 14 14 13 12 12 11 11 10 10 9 9 9 9 10 9
16 20 24 26 24 22 22 20 21 20 19 19 19 19 15 15 15 17 18 18 19 17 17 16 13 13 14 14 15 15 14 14 12 12 12 11 10 10 10 9 8 9 10 9
17 19 22 25 26 27 25 22 21 19 19 19 21 17 15 16 17 18 22 19 18 18 18 14 13 13 14 14 15 15 15 14 13 13 12 11 11 11 10 9 9 10 10 9
14 17 19 24 28 26 19 21 20 20 18 18 18 17 16 17 18 18 18 18 17 20 17 13 13 13 14 14 15 15 15 14 13 13 12 11 11 11 11 11 10 10 10 9
12 15 19 21 32 23 19 19 22 22 21 18 18 17 17 18 19 19 17 17 18 22 14 12 13 13 13 14 15 15 15 15 14 13 12 12 11 11 11 11 11 10 11 11
12 12 15 24 22 28 20 19 20 21 23 18 18 18 19 19 21 20 18 16 18 18 13 12 13 13 14 14 15 16 16 16 16 13 12 12 11 11 11 11 11 11 11 12
19 19 18 19 20 21 18 17 19 23 18 19 19 19 20 19 19 18 17 16 17 20 17 12 13 13 14 14 14 16 16 16 15 13 13 12 11 11 11 11 11 11 11 11
20 21 22 19 21 23 16 18 19 17 17 17 19 19 19 18 18 17 17 16 16 19 17 12 13 14 13 14 15 15 16 15 14 14 14 13 12 12 11 11 11 11 11 11
19 16 19 17 18 13 15 15 14 15 16 17 17 17 18 18 18 17 17 17 16 17 13 13 13 16 15 13 14 16 15 15 15 15 15 14 13 12 12 12 12 12 11 11
17 14 16 15 13 13 13 14 14 13 15 14 16 16 17 17 17 17 16 17 16 15 15 13 15 17 16 15 14 15 15 14 15 16 15 15 14 14 13 13 13 13 13 14
14 13 15 17 13 13 11 12 12 12 12 14 15 16 17 17 17 17 16 16 16 15 15 14 13 15 15 16 17 17 15 14 15 15 15 15 14 14 15 14 14 14 14 14
15 15 15 15 12 11 11 10 11 12 12 13 15 15 17 17 17 17 17 17 16 16 16 16 14 15 13 19 18 18 18 16 15 15 16 16 15 15 15 15 15 13 13 13